CAPE
1154 1413 1457 1595 1424 1551 1684 1669 1783 1819 1998 2239 2373 2442 2403 2343 2496 2242 1731 1643 1629 1692 1614 1456 1761 1705 1581 1504 1532 1379 1186 1078 877 538 395 299 166 145 455 462 468 410 339
722 870 918 1116 969 890 880 1052 1181 1328 1588 1773 1967 2175 2269 2042 2129 2025 1612 1723 1719 1767 1760 1740 1687 1862 1859 1737 1693 1575 1506 1301 977 953 873 676 394 357 368 413 403 432 486
690 961 757 605 547 646 653 644 832 952 923 1262 1579 1571 1731 1619 1562 1582 1686 1747 1446 1719 1813 1868 1921 1988 1928 1936 1818 1691 1534 1454 1159 1189 1098 593 568 462 433 371 305 404 389
1056 825 630 495 404 420 560 603 618 703 790 901 1113 1150 1228 1441 1391 1456 1663 1682 1610 1468 1580 1701 881 548 642 973 1431 1628 1411 1475 1067 1036 1226 548 776 544 352 343 440 367 323
777 655 522 431 494 566 666 651 669 633 743 923 1018 887 825 972 1203 1318 1694 1636 1382 1566 1352 1093 772 435 111 414 877 887 1096 1051 1122 1008 1005 958 949 716 458 384 435 437 435
727 611 410 428 466 559 557 576 612 632 682 837 902 816 773 877 990 1236 1468 1518 1394 1193 1347 1381 1082 678 11 38 194 451 708 970 1144 1074 909 999 955 829 562 469 403 454 320
770 622 504 427 601 469 312 341 414 462 635 794 773 754 687 725 908 1203 1443 1535 1352 1148 967 1159 919 514 434 33 50 223 290 575 1192 1167 905 985 1081 687 679 482 389 369 241
601 596 575 504 379 276 108 124 213 280 523 673 690 688 653 658 692 912 893 1005 1080 1035 912 854 827 561 55 20 53 94 259 573 1050 1397 1064 1065 1038 757 619 593 444 291 233
405 549 591 486 201 64 57 92 130 36 112 292 497 507 515 535 616 710 679 691 719 727 748 694 498 208 27 14 39 81 233 607 1059 1374 1357 1369 1072 882 763 660 466 388 320
438 496 427 282 69 6 0 13 54 18 50 171 463 546 617 625 560 615 593 509 549 635 610 513 307 176 1 0 0 42 352 651 879 1074 1416 1597 1242 883 808 601 420 315 280
442 435 324 96 7 0 0 0 25 45 113 179 340 310 503 462 460 436 466 443 641 660 467 370 304 297 127 0 19 42 122 307 858 834 981 1030 941 907 695 627 524 402 162
334 195 45 11 2 0 0 9 46 59 122 81 124 230 252 240 237 371 389 480 438 323 330 315 245 405 261 11 154 304 586 726 788 785 752 754 741 748 711 529 409 271 84
191 110 36 0 0 0 5 43 40 68 44 89 64 23 29 129 270 184 195 244 316 251 172 363 614 736 781 599 287 688 693 692 845 844 632 606 567 548 461 397 330 93 45
71 240 1 0 0 4 28 72 68 29 13 133 136 19 0 8 23 3 113 71 170 162 188 345 457 509 422 360 319 662 821 861 901 852 747 590 483 315 345 259 106 65 22
4 0 1 0 13 6 49 61 73 29 4 0 31 0 0 0 9 14 38 81 136 154 297 391 432 444 390 356 332 520 778 858 580 603 614 516 412 306 174 97 59 87 47
0 0 0 1 5 0 34 11 51 43 12 1 0 0 0 0 0 0 59 103 79 110 173 261 321 288 243 236 197 248 263 353 250 264 276 236 206 147 81 47 33 15 39
9 30 0 5 4 4 19 36 44 48 28 10 4 0 0 0 0 0 45 28 10 91 136 136 152 251 196 274 148 90 41 28 29 55 28 100 55 15 51 31 25 4 0
9 8 27 0 0 2 26 41 17 38 63 40 43 6 0 0 0 0 0 27 69 16 62 50 30 51 98 122 77 66 47 15 63 15 12 17 14 6 0 1 4 6 24
34 4 18 46 38 36 47 29 18 21 45 91 45 33 4 0 0 4 14 28 112 94 27 7 13 6 18 51 52 13 8 1 0 0 11 14 8 9 3 6 16 5 31
58 49 34 42 52 54 52 22 26 23 33 79 71 58 54 4 0 7 35 45 57 43 26 0 0 0 0 0 0 0 0 0 0 0 6 12 7 9 7 8 8 1 0
43 40 64 57 35 32 7 2 18 27 36 121 80 57 47 0 8 41 47 78 66 48 36 0 0 0 0 0 0 0 0 0 0 0 12 9 0 0 0 0 0 0 0
7 27 54 21 37 37 17 0 12 46 172 213 187 173 75 19 0 48 58 58 78 63 42 26 30 31 26 33 24 8 5 3 7 11 14 16 4 0 1 0 0 0 0
12 27 33 41 30 25 29 16 12 31 104 122 152 197 168 103 35 35 35 56 56 38 26 28 34 35 35 41 60 53 44 16 17 3 25 26 32 4 3 7 13 6 6
26 29 31 36 51 33 37 61 30 14 19 17 98 166 157 106 45 54 47 41 58 41 39 41 31 49 27 48 60 49 41 75 36 18 20 42 43 19 7 6 0 1 2
29 30 41 28 13 32 35 14 14 5 21 16 11 51 90 71 24 43 63 104 96 58 46 25 30 72 98 95 67 47 49 58 44 37 14 16 6 7 10 0 0 0 0
4 57 22 23 10 3 1 8 0 9 25 42 45 25 10 9 25 83 123 120 82 41 32 52 73 70 60 50 56 61 65 56 51 42 26 24 10 10 2 0 0 0 0
CIN
-66 -44 -31 -29 -23 -81 -46 -34 -37 -44 -45 -29 -24 -9 -2 0 0 0 -24 -12 -33 -33 -21 -42 -46 -62 -58 -45 -43 -24 -17 -17 -7 -58 -61 -43 -78 -108 -53 -59 -42 -58 -51
-106 -93 -94 -91 -131 -138 -111 -67 -51 -72 -55 -44 -30 -23 -8 -2 0 0 -1 -10 -14 -19 -27 -30 -33 -30 -18 -24 -6 -34 -19 -22 -23 -27 -27 -31 -61 -98 -113 -84 -80 -88 -50
-77 -53 -44 -40 -106 -113 -100 -114 -62 -34 -19 -73 -44 -35 -17 -12 -6 0 0 0 -26 -4 -5 -4 -1 -2 -8 -5 0 -8 -13 -20 -19 -5 -1 -40 -41 -80 -96 -77 -82 -36 -50
-23 -13 -30 -44 -75 -72 -81 -74 -73 -68 -63 -53 -50 -41 -23 -4 -21 -21 -4 -1 -1 -12 -33 -22 -67 -122 -176 -97 -17 0 -36 -29 -36 -11 -2 -36 -27 -63 -98 -70 -23 -32 -39
-29 -39 -61 -79 -70 -59 -56 -72 -70 -83 -86 -36 -23 -35 -58 -31 -19 -27 -2 -1 -15 -2 -23 -45 -67 -139 -406 -197 -58 -33 -11 -44 -30 -18 -15 -10 -28 -47 -111 -85 -53 -24 -17
-30 -13 -48 -68 -65 -56 -62 -72 -69 -69 -61 -30 -22 -33 -42 -44 -54 -15 0 0 -2 -26 -8 -21 -49 -96 -43 -275 -199 -67 -13 -2 -31 -26 -49 -31 -51 -51 -80 -63 -59 -40 -28
-22 -30 -49 -48 -29 -43 -87 -120 -94 -83 -42 -14 -23 -24 -34 -63 -54 -8 0 0 0 -31 -58 -46 -66 -97 -64 -206 -98 -77 -128 -21 -17 -24 -58 -60 -45 -62 -35 -75 -72 -49 -43
-38 -32 -31 -40 -41 -56 -101 -156 -85 -70 -38 -11 -21 -25 -32 -69 -86 -19 -19 -16 0 -37 -84 -78 -39 -46 -212 -179 -105 -54 -66 -19 -15 -8 -23 -38 -41 -29 -25 -40 -39 -55 -43
-85 -36 -15 -20 -67 -172 -184 -135 -119 -157 -114 -58 -30 -53 -62 -85 -83 -23 -18 -24 -15 -44 -64 -62 -61 -117 -165 -135 -14 -38 -7 -8 -50 -28 -9 -25 -36 -13 -8 -18 -33 -30 -31
-66 -18 -7 -19 -80 -133 0 -180 -83 -21 -107 -61 -32 -16 -9 -33 -43 -29 -12 -17 -22 -11 -33 -36 -25 -21 -11 0 0 -84 0 -36 -47 -40 -13 0 -18 -16 -18 -14 -10 -11 -20
-21 -4 -13 -63 -59 0 0 0 -121 -21 -37 -52 -30 -26 -24 -32 -28 -29 -12 0 0 0 -8 -6 -5 -1 -63 0 -50 -49 -4 -16 -46 -52 -40 -29 -25 -23 -15 -12 -10 -6 -8
-12 -20 -61 -38 -14 0 0 0 -19 -36 -52 -45 -40 -20 -38 -44 -39 -1 0 0 -3 -4 -10 -59 -65 -17 -6 -41 -18 -5 0 -13 -27 -28 -42 -21 -18 -14 -4 -6 -9 -4 -43
0 -9 -27 -1 0 0 -2 -22 -40 -54 -13 -26 -16 -66 -52 -22 -2 -11 -8 -2 0 -1 -34 -33 -2 0 -2 0 0 -8 -23 -47 -28 -20 -17 -25 -31 -28 -9 0 0 -15 -76
-22 0 -25 0 0 0 -19 -31 -38 -36 -16 -18 -26 -68 0 -45 -17 -47 -3 -32 -11 -30 -7 -1 0 -1 -14 -32 -26 -2 0 0 -2 -3 -1 -8 0 -7 -2 -1 -2 -30 -13
-57 0 -4 -2 0 -4 -11 -15 -37 -4 -1 0 -9 0 0 0 -16 -25 -18 -7 -2 -2 0 0 0 0 -7 -15 -14 -4 0 -1 0 0 0 -1 0 0 -1 -3 -4 0 -7
0 0 0 -13 0 -11 -2 -27 -9 -9 -11 0 0 0 0 0 0 -1 -14 -17 -6 -23 0 0 0 -2 -22 -22 -36 -22 -20 -5 -24 -17 -11 -1 0 0 -1 -5 -1 -10 -1
-19 -5 0 0 0 0 0 -3 -12 -22 -16 -16 -24 0 0 0 0 0 -36 -39 -1 0 0 0 0 0 -3 -2 -31 -45 -52 -64 -62 -57 -47 -5 -7 -8 0 -8 0 -5 -3
-54 -7 0 0 0 0 -3 -27 0 -88 -44 -23 -1 -27 0 0 0 0 0 -24 -23 -15 -29 -14 -27 -12 0 -2 -13 -14 -19 -29 -16 -27 -17 -7 -6 -3 -1 -2 -2 -2 0
-35 -13 0 -27 -33 -36 -62 -30 -25 -20 -79 -47 -22 -3 -2 0 0 -1 -1 -47 -31 -36 -46 -14 -13 -5 -5 -2 -2 -9 -23 -12 0 -2 0 -12 -8 -6 -2 -4 -2 0 0
-53 -38 -24 -18 -26 -48 -22 -1 -101 -1 -109 -70 -42 -6 -2 -79 0 -22 -26 -20 -83 -46 -38 0 0 0 0 0 0 0 0 0 0 0 -5 -7 0 0 0 0 -13 -1 0
-79 -95 -14 -9 -45 -13 -1 0 0 -3 -98 -72 -34 -22 -5 0 -2 -11 -22 -24 -26 -39 -55 -2 0 0 0 0 0 0 0 0 0 -1 -13 -12 0 0 0 0 0 0 0
-21 0 -4 -11 0 -12 0 -2 -1 -28 -36 -63 -55 -28 -21 -58 0 -16 -22 -25 -33 -47 -57 -66 -62 -54 -33 -38 -52 -22 -7 -9 -24 -21 -20 -19 -15 0 -4 0 0 0 0
-15 -24 -1 -3 -24 -31 -22 -2 -7 -3 -31 -26 -48 -46 -36 -39 -38 -41 -29 -25 -24 -15 -31 -29 -29 -44 -25 -34 -32 -33 -43 -27 -23 -14 -27 -28 -24 -25 -13 -11 -12 -12 -12
0 -10 -7 -5 -21 -40 -10 -14 -3 -14 -46 -13 -34 -45 -27 -28 -23 -18 -20 -36 -13 -5 -18 -18 -21 -29 0 -18 -25 -21 -26 -27 -8 -10 -16 -27 -11 -9 -8 -17 0 -4 -5
-10 0 -3 -1 -51 -57 -14 -2 -11 -73 -16 -13 -13 -22 -14 -7 -23 -23 -11 -57 -23 -12 -28 -11 -18 -20 -12 -20 -17 -8 -6 -14 -7 -2 -3 -1 -2 -2 -1 0 0 0 0
0 -2 -1 -1 -13 -25 -1 -5 -1 -5 -1 -14 -5 -3 -50 -4 -34 -32 -24 -18 -6 -4 -23 -15 -5 -2 -10 -11 -7 -7 -3 -6 -8 -3 -6 -9 -3 -5 -8 0 0 0 0
Wind_Speed
35 35 35 36 40 43 46 46 46 46 44 41 31 29 32 37 37 33 28 32 27 22 20 19 16 15 14 11 8 8 10 9 5 9 12 15 13 9 8 10 14 13 11
40 41 41 41 39 41 44 43 46 45 44 41 37 33 34 38 39 37 27 32 32 27 25 26 23 26 19 14 8 4 8 10 9 12 17 12 8 8 7 8 9 12 12
41 44 43 41 41 41 43 43 43 45 40 39 40 37 41 42 39 36 34 36 36 33 33 34 32 31 25 22 14 9 7 5 4 16 13 7 5 7 8 8 9 10 12
40 42 43 43 43 43 44 45 39 37 38 37 38 39 43 44 41 37 40 41 41 39 45 43 40 37 32 28 21 13 12 5 6 2 10 11 9 8 11 9 11 12 12
41 42 42 45 45 44 43 41 36 33 34 36 37 39 41 43 44 39 38 46 47 38 42 45 50 42 38 30 33 24 17 10 11 10 5 9 9 11 12 12 12 15 16
45 46 47 48 46 43 38 35 34 31 32 34 33 37 37 38 35 34 36 45 49 43 45 52 55 48 nan nan 29 21 17 16 9 12 10 9 7 11 16 18 19 19 18
50 49 48 46 41 38 35 34 32 31 33 34 36 37 33 31 32 32 36 40 43 40 38 47 48 58 46 nan nan 29 15 6 6 13 12 15 17 14 19 21 22 24 22
49 47 44 40 36 35 34 33 33 34 33 35 32 35 33 32 31 33 36 36 37 36 36 32 40 45 nan nan nan nan 28 13 10 14 17 19 21 22 22 24 26 27 30
44 42 36 36 32 nan nan nan 34 nan 35 34 30 29 32 29 31 32 39 37 34 29 30 32 38 37 nan nan nan nan 31 15 18 15 22 19 23 24 25 27 27 29 30
37 37 35 34 nan nan nan nan nan nan nan 33 29 28 21 26 29 29 36 35 31 33 29 32 28 24 nan nan nan nan 25 17 23 27 26 28 24 22 28 29 32 30 30
36 37 37 nan nan nan nan nan nan nan 15 17 28 31 28 31 32 33 32 36 33 34 33 34 30 18 29 nan nan nan 30 26 25 28 28 28 31 30 25 24 26 30 33
36 34 nan nan nan nan nan nan nan nan 15 nan 19 21 24 26 29 28 31 27 31 33 33 35 34 25 31 nan 39 14 12 19 28 25 26 27 30 31 32 28 28 35 nan
29 24 nan nan nan nan nan nan nan nan nan nan nan nan nan 24 26 30 27 27 21 31 37 42 47 45 38 21 6 23 24 27 31 27 27 30 30 34 37 34 34 nan nan
nan 21 nan nan nan nan nan nan nan nan nan 18 20 nan nan nan nan nan 29 nan 30 39 42 42 45 50 46 39 38 32 32 33 32 28 32 37 37 37 38 36 34 nan nan
nan nan nan nan nan nan nan nan nan nan nan nan nan nan nan nan nan nan nan nan 29 25 34 35 45 46 45 40 37 38 41 42 41 38 38 39 38 36 37 nan nan nan nan
nan nan nan nan nan nan nan nan nan nan nan nan nan nan nan nan nan nan nan 28 nan 20 25 34 40 45 45 42 44 44 46 45 43 43 42 40 39 39 nan nan nan nan nan
nan nan nan nan nan nan nan nan nan nan nan nan nan nan nan nan nan nan nan nan nan nan 23 28 37 40 42 42 44 nan nan nan nan nan nan 40 nan nan nan nan nan nan nan
nan nan nan nan nan nan nan nan nan nan nan nan nan nan nan nan nan nan nan nan nan nan nan nan nan nan nan 42 nan nan nan nan nan nan nan nan nan nan nan nan nan nan nan
nan nan nan nan nan nan nan nan nan nan nan nan nan nan nan nan nan nan nan nan 9 nan nan nan nan nan nan nan nan nan nan nan nan nan nan nan nan nan nan nan nan nan nan
nan nan nan nan nan nan nan nan nan nan nan nan nan nan nan nan nan nan nan nan nan nan nan nan nan nan nan nan nan nan nan nan nan nan nan nan nan nan nan nan nan nan nan
nan nan nan nan nan nan nan nan nan nan nan 17 nan nan nan nan nan nan nan nan nan nan nan nan nan nan nan nan nan nan nan nan nan nan nan nan nan nan nan nan nan nan nan
nan nan nan nan nan nan nan nan nan nan 22 20 20 21 nan nan nan nan nan nan nan nan nan nan nan nan nan nan nan nan nan nan nan nan nan nan nan nan nan nan nan nan nan
nan nan nan nan nan nan nan nan nan nan 14 16 17 18 24 20 nan nan nan nan nan nan nan nan nan nan nan nan nan nan nan nan nan nan nan nan nan nan nan nan nan nan nan
nan nan nan nan nan nan nan nan nan nan nan nan nan 17 17 16 nan nan nan nan nan nan nan nan nan nan nan nan nan nan nan nan nan nan nan nan nan nan nan nan nan nan nan
nan nan nan nan nan nan nan nan nan nan nan nan nan nan nan nan nan nan nan 20 nan nan nan nan nan nan nan nan nan nan nan nan nan nan nan nan nan nan nan nan nan nan nan
nan nan nan nan nan nan nan nan nan nan nan nan nan nan nan nan nan nan 24 26 nan nan nan nan nan nan nan nan nan nan nan nan nan nan nan nan nan nan nan nan nan nan nan
Wind_Direction
291 291 287 283 282 282 282 282 284 283 284 282 273 256 251 241 240 247 257 231 232 226 232 233 234 239 226 228 272 301 337 340 205 217 245 234 230 225 240 268 274 280 282
293 290 287 285 282 282 284 283 282 281 279 278 270 252 243 246 243 235 234 223 231 229 230 229 229 232 225 219 226 280 336 359 43 144 197 184 202 228 250 265 275 270 274
289 289 290 290 289 287 285 283 282 281 277 273 268 252 239 239 247 240 226 223 230 225 231 231 227 230 224 223 208 199 245 285 8 99 114 163 199 236 224 231 246 262 271
290 288 288 288 289 289 287 286 281 275 274 271 267 256 240 237 242 238 234 233 226 234 236 234 232 230 229 220 218 196 219 244 280 163 146 153 184 222 241 243 238 259 273
295 292 291 290 290 289 288 286 281 275 270 271 266 257 249 241 239 241 240 234 239 240 252 239 243 227 231 227 232 209 198 224 247 263 250 213 206 229 255 253 257 260 265
293 293 292 294 295 292 289 282 276 269 266 269 268 259 255 244 238 242 245 240 238 245 251 254 251 245 nan nan 223 212 186 190 231 254 263 253 259 246 254 261 263 263 266
294 297 297 294 292 285 279 277 273 262 261 269 263 257 254 243 243 240 245 242 239 242 251 253 262 257 236 nan nan 214 197 162 219 248 276 271 251 261 259 263 269 269 273
296 299 299 295 288 279 272 274 272 270 270 273 264 257 256 244 236 242 239 242 246 244 251 264 266 245 nan nan nan nan 205 195 220 238 256 258 267 260 270 270 275 271 265
306 305 304 296 287 nan nan nan 273 nan 275 270 262 256 257 242 242 248 247 245 238 240 245 259 259 248 nan nan nan nan 180 194 230 248 261 261 268 288 270 265 270 270 274
305 307 304 297 nan nan nan nan nan nan nan 262 247 253 250 239 248 253 254 243 234 235 251 264 271 266 nan nan nan nan 164 214 241 242 246 253 277 278 289 273 274 272 273
300 300 297 nan nan nan nan nan nan nan 262 249 239 239 242 242 241 231 237 239 237 242 242 243 257 290 208 nan nan nan 208 219 223 241 251 252 261 271 269 277 280 266 273
297 303 nan nan nan nan nan nan nan nan 254 nan 239 247 243 239 242 233 233 237 239 247 252 254 248 252 249 nan 197 217 236 233 239 239 254 262 264 271 277 279 282 275 nan
300 299 nan nan nan nan nan nan nan nan nan nan nan nan nan 240 248 234 233 237 257 253 245 241 253 255 254 233 252 208 220 234 249 254 260 261 261 264 269 269 269 nan nan
nan 281 nan nan nan nan nan nan nan nan nan 242 256 nan nan nan nan nan 236 nan 244 261 245 249 250 251 246 244 230 232 239 250 261 261 256 256 259 262 264 264 266 nan nan
nan nan nan nan nan nan nan nan nan nan nan nan nan nan nan nan nan nan nan nan 240 261 244 244 239 243 244 238 227 231 237 243 250 253 259 265 267 264 265 nan nan nan nan
nan nan nan nan nan nan nan nan nan nan nan nan nan nan nan nan nan nan nan 210 nan 223 240 241 237 234 241 241 241 241 245 250 252 256 259 264 263 262 nan nan nan nan nan
nan nan nan nan nan nan nan nan nan nan nan nan nan nan nan nan nan nan nan nan nan nan 231 247 234 233 233 235 239 nan nan nan nan nan nan 258 nan nan nan nan nan nan nan
nan nan nan nan nan nan nan nan nan nan nan nan nan nan nan nan nan nan nan nan nan nan nan nan nan nan nan 237 nan nan nan nan nan nan nan nan nan nan nan nan nan nan nan
nan nan nan nan nan nan nan nan nan nan nan nan nan nan nan nan nan nan nan nan 276 nan nan nan nan nan nan nan nan nan nan nan nan nan nan nan nan nan nan nan nan nan nan
nan nan nan nan nan nan nan nan nan nan nan nan nan nan nan nan nan nan nan nan nan nan nan nan nan nan nan nan nan nan nan nan nan nan nan nan nan nan nan nan nan nan nan
nan nan nan nan nan nan nan nan nan nan nan 259 nan nan nan nan nan nan nan nan nan nan nan nan nan nan nan nan nan nan nan nan nan nan nan nan nan nan nan nan nan nan nan
nan nan nan nan nan nan nan nan nan nan 253 257 252 253 nan nan nan nan nan nan nan nan nan nan nan nan nan nan nan nan nan nan nan nan nan nan nan nan nan nan nan nan nan
nan nan nan nan nan nan nan nan nan nan 260 259 259 248 257 267 nan nan nan nan nan nan nan nan nan nan nan nan nan nan nan nan nan nan nan nan nan nan nan nan nan nan nan
nan nan nan nan nan nan nan nan nan nan nan nan nan 273 269 269 nan nan nan nan nan nan nan nan nan nan nan nan nan nan nan nan nan nan nan nan nan nan nan nan nan nan nan
nan nan nan nan nan nan nan nan nan nan nan nan nan nan nan nan nan nan nan 275 nan nan nan nan nan nan nan nan nan nan nan nan nan nan nan nan nan nan nan nan nan nan nan
nan nan nan nan nan nan nan nan nan nan nan nan nan nan nan nan nan nan 241 249 nan nan nan nan nan nan nan nan nan nan nan nan nan nan nan nan nan nan nan nan nan nan nan